Year,Month,Day,Hour,Minute,Value (Times are PST for temperature in C)
2007,03,23,00,00,7.30
2007,03,23,00,01,7.30
2007,03,23,00,02,7.30
2007,03,23,00,03,7.30
2007,03,23,00,04,7.30
2007,03,23,00,05,7.30
2007,03,23,00,06,7.30
2007,03,23,00,07,7.30
2007,03,23,00,08,7.30
2007,03,23,00,09,7.30
2007,03,23,00,10,7.20
2007,03,23,00,11,7.30
2007,03,23,00,12,7.30
2007,03,23,00,13,7.30
2007,03,23,00,14,7.20
2007,03,23,00,15,7.20
2007,03,23,00,16,7.20
2007,03,23,00,17,7.20
2007,03,23,00,18,7.20
2007,03,23,00,19,7.20
2007,03,23,00,20,7.20
2007,03,23,00,21,7.20
2007,03,23,00,22,7.20
2007,03,23,00,23,7.20
2007,03,23,00,24,7.20
2007,03,23,00,25,7.20
2007,03,23,00,26,7.20
2007,03,23,00,27,7.20
2007,03,23,00,28,7.20
2007,03,23,00,29,7.20
2007,03,23,00,30,7.20
2007,03,23,00,31,7.20
2007,03,23,00,32,7.20
2007,03,23,00,33,7.20
2007,03,23,00,34,7.20
2007,03,23,00,35,7.20
2007,03,23,00,36,7.20
2007,03,23,00,37,7.20
2007,03,23,00,38,7.30
2007,03,23,00,39,7.30
2007,03,23,00,40,7.30
2007,03,23,00,41,7.30
2007,03,23,00,42,7.30
2007,03,23,00,43,7.30
2007,03,23,00,44,7.30
2007,03,23,00,45,7.30
2007,03,23,00,46,7.30
2007,03,23,00,47,7.30
2007,03,23,00,48,7.30
2007,03,23,00,49,7.30
2007,03,23,00,50,7.30
2007,03,23,00,51,7.30
2007,03,23,00,52,7.30
2007,03,23,00,53,7.30
2007,03,23,00,54,7.40
2007,03,23,00,55,7.40
2007,03,23,00,56,7.40
2007,03,23,00,57,7.40
2007,03,23,00,58,7.40
2007,03,23,00,59,7.40
2007,03,23,01,00,7.40
2007,03,23,01,01,7.40
2007,03,23,01,02,7.40
2007,03,23,01,03,7.40
2007,03,23,01,04,7.40
2007,03,23,01,05,7.40
2007,03,23,01,06,7.40
2007,03,23,01,07,7.40
2007,03,23,01,08,7.40
2007,03,23,01,09,7.40
2007,03,23,01,10,7.40
2007,03,23,01,11,7.40
2007,03,23,01,12,7.40
2007,03,23,01,13,7.40
2007,03,23,01,14,7.40
2007,03,23,01,15,7.40
2007,03,23,01,16,7.40
2007,03,23,01,17,7.40
2007,03,23,01,18,7.40
2007,03,23,01,19,7.40
2007,03,23,01,20,7.40
2007,03,23,01,21,7.40
2007,03,23,01,22,7.40
2007,03,23,01,23,7.40
2007,03,23,01,24,7.40
2007,03,23,01,25,7.40
2007,03,23,01,26,7.40
2007,03,23,01,27,7.40
2007,03,23,01,28,7.40
2007,03,23,01,29,7.40
2007,03,23,01,30,7.40
2007,03,23,01,31,7.40
2007,03,23,01,32,7.40
2007,03,23,01,33,7.40
2007,03,23,01,34,7.40
2007,03,23,01,35,7.40
2007,03,23,01,36,7.40
2007,03,23,01,37,7.40
2007,03,23,01,38,7.30
2007,03,23,01,39,7.30
2007,03,23,01,40,7.30
2007,03,23,01,41,7.40
2007,03,23,01,42,7.40
2007,03,23,01,43,7.40
2007,03,23,01,44,7.30
2007,03,23,01,45,7.30
2007,03,23,01,46,7.40
2007,03,23,01,47,7.30
2007,03,23,01,48,7.30
2007,03,23,01,49,7.30
2007,03,23,01,50,7.30
2007,03,23,01,51,7.30
2007,03,23,01,52,7.30
2007,03,23,01,53,7.30
2007,03,23,01,54,7.30
2007,03,23,01,55,7.30
2007,03,23,01,56,7.30
2007,03,23,01,57,7.30
2007,03,23,01,58,7.30
2007,03,23,01,59,7.30
2007,03,23,02,00,7.30
2007,03,23,02,01,7.30
2007,03,23,02,02,7.30
2007,03,23,02,03,7.30
2007,03,23,02,04,7.30
2007,03,23,02,05,7.30
2007,03,23,02,06,7.30
2007,03,23,02,07,7.30
2007,03,23,02,08,7.30
2007,03,23,02,09,7.30
2007,03,23,02,10,7.30
2007,03,23,02,11,7.30
2007,03,23,02,12,7.30
2007,03,23,02,13,7.30
2007,03,23,02,14,7.30
2007,03,23,02,15,7.30
2007,03,23,02,16,7.40
2007,03,23,02,17,7.40
2007,03,23,02,18,7.40
2007,03,23,02,19,7.40
2007,03,23,02,20,7.40
2007,03,23,02,21,7.40
2007,03,23,02,22,7.40
2007,03,23,02,23,7.40
2007,03,23,02,24,7.40
2007,03,23,02,25,7.40
2007,03,23,02,26,7.40
2007,03,23,02,27,7.40
2007,03,23,02,28,7.40
2007,03,23,02,29,7.40
2007,03,23,02,30,7.40
2007,03,23,02,31,7.40
2007,03,23,02,32,7.40
2007,03,23,02,33,7.40
2007,03,23,02,34,7.40
2007,03,23,02,35,7.40
2007,03,23,02,36,7.40
2007,03,23,02,37,7.40
2007,03,23,02,38,7.40
2007,03,23,02,39,7.40
2007,03,23,02,40,7.40
2007,03,23,02,41,7.40
2007,03,23,02,42,7.40
2007,03,23,02,43,7.40
2007,03,23,02,44,7.40
2007,03,23,02,45,7.40
2007,03,23,02,46,7.40
2007,03,23,02,47,7.40
2007,03,23,02,48,7.40
2007,03,23,02,49,7.50
2007,03,23,02,50,7.40
2007,03,23,02,51,7.50
2007,03,23,02,52,7.50
2007,03,23,02,53,7.50
2007,03,23,02,54,7.50
2007,03,23,02,55,7.50
2007,03,23,02,56,7.50
2007,03,23,02,57,7.50
2007,03,23,02,58,7.50
2007,03,23,02,59,7.50
2007,03,23,03,00,7.50
2007,03,23,03,01,7.50
2007,03,23,03,02,7.50
2007,03,23,03,03,7.60
2007,03,23,03,04,7.60
2007,03,23,03,05,7.60
2007,03,23,03,06,7.60
2007,03,23,03,07,7.60
2007,03,23,03,08,7.60
2007,03,23,03,09,7.60
2007,03,23,03,10,7.60
2007,03,23,03,11,7.60
2007,03,23,03,12,7.60
2007,03,23,03,13,7.60
2007,03,23,03,14,7.60
2007,03,23,03,15,7.60
2007,03,23,03,16,7.60
2007,03,23,03,17,7.60
2007,03,23,03,18,7.70
2007,03,23,03,19,7.70
2007,03,23,03,20,7.70
2007,03,23,03,21,7.70
2007,03,23,03,22,7.70
2007,03,23,03,23,7.70
2007,03,23,03,24,7.70
2007,03,23,03,25,7.70
2007,03,23,03,26,7.70
2007,03,23,03,27,7.70
2007,03,23,03,28,7.80
2007,03,23,03,29,7.80
2007,03,23,03,30,7.80
2007,03,23,03,31,7.80
2007,03,23,03,32,7.80
2007,03,23,03,33,7.80
2007,03,23,03,34,7.80
2007,03,23,03,35,7.80
2007,03,23,03,36,7.80
2007,03,23,03,37,7.80
2007,03,23,03,38,7.80
2007,03,23,03,39,7.80
2007,03,23,03,40,7.80
2007,03,23,03,41,7.80
2007,03,23,03,42,7.80
2007,03,23,03,43,7.80
2007,03,23,03,44,7.80
2007,03,23,03,45,7.80
2007,03,23,03,46,7.80
2007,03,23,03,47,7.80
2007,03,23,03,48,7.70
2007,03,23,03,49,7.70
2007,03,23,03,50,7.70
2007,03,23,03,51,7.70
2007,03,23,03,52,7.70
2007,03,23,03,53,7.70
2007,03,23,03,54,7.70
2007,03,23,03,55,7.70
2007,03,23,03,56,7.70
2007,03,23,03,57,7.70
2007,03,23,03,58,7.70
2007,03,23,03,59,7.70
2007,03,23,04,00,7.70
2007,03,23,04,01,7.70
2007,03,23,04,02,7.70
2007,03,23,04,03,7.70
2007,03,23,04,04,7.70
2007,03,23,04,05,7.70
2007,03,23,04,06,7.70
2007,03,23,04,07,7.70
2007,03,23,04,08,7.70
2007,03,23,04,09,7.70
2007,03,23,04,10,7.70
2007,03,23,04,11,7.70
2007,03,23,04,12,7.70
2007,03,23,04,13,7.70
2007,03,23,04,14,7.70
2007,03,23,04,15,7.70
2007,03,23,04,16,7.70
2007,03,23,04,17,7.70
2007,03,23,04,18,7.70
2007,03,23,04,19,7.70
2007,03,23,04,20,7.70
2007,03,23,04,21,7.70
2007,03,23,04,22,7.70
2007,03,23,04,23,7.70
2007,03,23,04,24,7.70
2007,03,23,04,25,7.70
2007,03,23,04,26,7.70
2007,03,23,04,27,7.70
2007,03,23,04,28,7.70
2007,03,23,04,29,7.70
2007,03,23,04,30,7.70
2007,03,23,04,31,7.70
2007,03,23,04,32,7.70
2007,03,23,04,33,7.70
2007,03,23,04,34,7.70
2007,03,23,04,35,7.70
2007,03,23,04,36,7.70
2007,03,23,04,37,7.70
2007,03,23,04,38,7.70
2007,03,23,04,39,7.80
2007,03,23,04,40,7.70
2007,03,23,04,41,7.70
2007,03,23,04,42,7.80
2007,03,23,04,43,7.80
2007,03,23,04,44,7.80
2007,03,23,04,45,7.80
2007,03,23,04,46,7.80
2007,03,23,04,47,7.80
2007,03,23,04,48,7.80
2007,03,23,04,49,7.80
2007,03,23,04,50,7.80
2007,03,23,04,51,7.80
2007,03,23,04,52,7.80
2007,03,23,04,53,7.80
2007,03,23,04,54,7.80
2007,03,23,04,55,7.80
2007,03,23,04,56,7.80
2007,03,23,04,57,7.80
2007,03,23,04,58,7.80
2007,03,23,04,59,7.80
2007,03,23,05,00,7.80
2007,03,23,05,01,7.80
2007,03,23,05,02,7.80
2007,03,23,05,03,7.80
2007,03,23,05,04,7.80
2007,03,23,05,05,7.80
2007,03,23,05,06,7.80
2007,03,23,05,07,7.80
2007,03,23,05,08,7.80
2007,03,23,05,09,7.80
2007,03,23,05,10,7.80
2007,03,23,05,11,7.80
2007,03,23,05,12,7.80
2007,03,23,05,13,7.80
2007,03,23,05,14,7.80
2007,03,23,05,15,7.80
2007,03,23,05,16,7.80
2007,03,23,05,17,7.80
2007,03,23,05,18,7.80
2007,03,23,05,19,7.80
2007,03,23,05,20,7.80
2007,03,23,05,21,7.80
2007,03,23,05,22,7.80
2007,03,23,05,23,7.80
2007,03,23,05,24,7.80
2007,03,23,05,25,7.80
2007,03,23,05,26,7.80
2007,03,23,05,27,7.80
2007,03,23,05,28,7.80
2007,03,23,05,29,7.80
2007,03,23,05,30,7.80
2007,03,23,05,31,7.80
2007,03,23,05,32,7.80
2007,03,23,05,33,7.80
2007,03,23,05,34,7.80
2007,03,23,05,35,7.80
2007,03,23,05,36,7.80
2007,03,23,05,37,7.80
2007,03,23,05,38,7.80
2007,03,23,05,39,7.80
2007,03,23,05,40,7.80
2007,03,23,05,41,7.80
2007,03,23,05,42,7.80
2007,03,23,05,43,7.90
2007,03,23,05,44,7.90
2007,03,23,05,45,7.90
2007,03,23,05,46,7.90
2007,03,23,05,47,7.90
2007,03,23,05,48,7.90
2007,03,23,05,49,7.90
2007,03,23,05,50,7.90
2007,03,23,05,51,7.90
2007,03,23,05,52,7.80
2007,03,23,05,53,7.80
2007,03,23,05,54,7.80
2007,03,23,05,55,7.80
2007,03,23,05,56,7.80
2007,03,23,05,57,7.80
2007,03,23,05,58,7.80
2007,03,23,05,59,7.80
2007,03,23,06,00,7.80
2007,03,23,06,01,7.80
2007,03,23,06,02,7.80
2007,03,23,06,03,7.80
2007,03,23,06,04,7.80
2007,03,23,06,05,7.80
2007,03,23,06,06,7.80
2007,03,23,06,07,7.80
2007,03,23,06,08,7.80
2007,03,23,06,09,7.80
2007,03,23,06,10,7.80
2007,03,23,06,11,7.80
2007,03,23,06,12,7.80
2007,03,23,06,13,7.80
2007,03,23,06,14,7.80
2007,03,23,06,15,7.80
2007,03,23,06,16,7.80
2007,03,23,06,17,7.80
2007,03,23,06,18,7.80
2007,03,23,06,19,7.80
2007,03,23,06,20,7.80
2007,03,23,06,21,7.80
2007,03,23,06,22,7.80
2007,03,23,06,23,7.80
2007,03,23,06,24,7.80
2007,03,23,06,25,7.70
2007,03,23,06,26,7.70
2007,03,23,06,27,7.70
2007,03,23,06,28,7.70
2007,03,23,06,29,7.70
2007,03,23,06,30,7.70
2007,03,23,06,31,7.70
2007,03,23,06,32,7.70
2007,03,23,06,33,7.70
2007,03,23,06,34,7.70
2007,03,23,06,35,7.70
2007,03,23,06,36,7.70
2007,03,23,06,37,7.70
2007,03,23,06,38,7.70
2007,03,23,06,39,7.60
2007,03,23,06,40,7.60
2007,03,23,06,41,7.60
2007,03,23,06,42,7.60
2007,03,23,06,43,7.60
2007,03,23,06,44,7.60
2007,03,23,06,45,7.60
2007,03,23,06,46,7.60
2007,03,23,06,47,7.60
2007,03,23,06,48,7.60
2007,03,23,06,49,7.60
2007,03,23,06,50,7.60
2007,03,23,06,51,7.60
2007,03,23,06,52,7.60
2007,03,23,06,53,7.70
2007,03,23,06,54,7.70
2007,03,23,06,55,7.70
2007,03,23,06,56,7.70
2007,03,23,06,57,7.70
2007,03,23,06,58,7.70
2007,03,23,06,59,7.70
2007,03,23,07,00,7.70
2007,03,23,07,01,7.70
2007,03,23,07,02,7.70
2007,03,23,07,03,7.70
2007,03,23,07,04,7.70
2007,03,23,07,05,7.70
2007,03,23,07,06,7.70
2007,03,23,07,07,7.70
2007,03,23,07,08,7.70
2007,03,23,07,09,7.70
2007,03,23,07,10,7.70
2007,03,23,07,11,7.70
2007,03,23,07,12,7.70
2007,03,23,07,13,7.70
2007,03,23,07,14,7.70
2007,03,23,07,15,7.70
2007,03,23,07,16,7.70
2007,03,23,07,17,7.70
2007,03,23,07,18,7.70
2007,03,23,07,19,7.70
2007,03,23,07,20,7.70
2007,03,23,07,21,7.70
2007,03,23,07,22,7.70
2007,03,23,07,23,7.70
2007,03,23,07,24,7.70
2007,03,23,07,25,7.70
2007,03,23,07,26,7.70
2007,03,23,07,27,7.70
2007,03,23,07,28,7.70
2007,03,23,07,29,7.70
2007,03,23,07,30,7.70
2007,03,23,07,31,7.70
2007,03,23,07,32,7.70
2007,03,23,07,33,7.70
2007,03,23,07,34,7.70
2007,03,23,07,35,7.70
2007,03,23,07,36,7.70
2007,03,23,07,37,7.70
2007,03,23,07,38,7.70
2007,03,23,07,39,7.70
2007,03,23,07,40,7.70
2007,03,23,07,41,7.70
2007,03,23,07,42,7.70
2007,03,23,07,43,7.70
2007,03,23,07,44,7.70
2007,03,23,07,45,7.70
2007,03,23,07,46,7.70
2007,03,23,07,47,7.70
2007,03,23,07,48,7.80
2007,03,23,07,49,7.80
2007,03,23,07,50,7.80
2007,03,23,07,51,7.80
2007,03,23,07,52,7.80
2007,03,23,07,53,7.80
2007,03,23,07,54,7.80
2007,03,23,07,55,7.80
2007,03,23,07,56,7.80
2007,03,23,07,57,7.80
2007,03,23,07,58,7.80
2007,03,23,07,59,7.80
2007,03,23,08,00,7.80
2007,03,23,08,01,7.80
2007,03,23,08,02,7.80
2007,03,23,08,03,7.80
2007,03,23,08,04,7.80
2007,03,23,08,05,7.80
2007,03,23,08,06,7.80
2007,03,23,08,07,7.80
2007,03,23,08,08,7.80
2007,03,23,08,09,7.80
2007,03,23,08,10,7.80
2007,03,23,08,11,7.80
2007,03,23,08,12,7.80
2007,03,23,08,13,7.80
2007,03,23,08,14,7.80
2007,03,23,08,15,7.80
2007,03,23,08,16,7.80
2007,03,23,08,17,7.80
2007,03,23,08,18,7.80
2007,03,23,08,19,7.80
2007,03,23,08,20,7.80
2007,03,23,08,21,7.80
2007,03,23,08,22,7.80
2007,03,23,08,23,7.80
2007,03,23,08,24,7.80
2007,03,23,08,25,7.80
2007,03,23,08,26,7.80
2007,03,23,08,27,7.80
2007,03,23,08,28,7.80
2007,03,23,08,29,7.80
2007,03,23,08,30,7.80
2007,03,23,08,31,7.80
2007,03,23,08,32,7.80
2007,03,23,08,33,7.80
2007,03,23,08,34,7.70
2007,03,23,08,35,7.70
2007,03,23,08,36,7.70
2007,03,23,08,37,7.70
2007,03,23,08,38,7.70
2007,03,23,08,39,7.70
2007,03,23,08,40,7.70
2007,03,23,08,41,7.70
2007,03,23,08,42,7.60
2007,03,23,08,43,7.60
2007,03,23,08,44,7.60
2007,03,23,08,45,7.60
2007,03,23,08,46,7.60
2007,03,23,08,47,7.60
2007,03,23,08,48,7.60
2007,03,23,08,49,7.60
2007,03,23,08,50,7.60
2007,03,23,08,51,7.60
2007,03,23,08,52,7.60
2007,03,23,08,53,7.60
2007,03,23,08,54,7.60
2007,03,23,08,55,7.60
2007,03,23,08,56,7.50
2007,03,23,08,57,7.50
2007,03,23,08,58,7.50
2007,03,23,08,59,7.50
2007,03,23,09,00,7.50
2007,03,23,09,01,7.50
2007,03,23,09,02,7.50
2007,03,23,09,03,7.50
2007,03,23,09,04,7.50
2007,03,23,09,05,7.50
2007,03,23,09,06,7.50
2007,03,23,09,07,7.50
2007,03,23,09,08,7.40
2007,03,23,09,09,7.50
2007,03,23,09,10,7.50
2007,03,23,09,11,7.40
2007,03,23,09,12,7.40
2007,03,23,09,13,7.40
2007,03,23,09,14,7.40
2007,03,23,09,15,7.40
2007,03,23,09,16,7.40
2007,03,23,09,17,7.40
2007,03,23,09,18,7.40
2007,03,23,09,19,7.40
2007,03,23,09,20,7.40
2007,03,23,09,21,7.40
2007,03,23,09,22,7.40
2007,03,23,09,23,7.40
2007,03,23,09,24,7.40
2007,03,23,09,25,7.40
2007,03,23,09,26,7.40
2007,03,23,09,27,7.40
2007,03,23,09,28,7.50
2007,03,23,09,29,7.50
2007,03,23,09,30,7.50
2007,03,23,09,31,7.50
2007,03,23,09,32,7.50
2007,03,23,09,33,7.50
2007,03,23,09,34,7.50
2007,03,23,09,35,7.50
2007,03,23,09,36,7.60
2007,03,23,09,37,7.60
2007,03,23,09,38,7.60
2007,03,23,09,39,7.60
2007,03,23,09,40,7.60
2007,03,23,09,41,7.60
2007,03,23,09,42,7.60
2007,03,23,09,43,7.60
2007,03,23,09,44,7.60
2007,03,23,09,45,7.60
2007,03,23,09,46,7.60
2007,03,23,09,47,7.60
2007,03,23,09,48,7.60
2007,03,23,09,49,7.60
2007,03,23,09,50,7.70
2007,03,23,09,51,7.70
2007,03,23,09,52,7.70
2007,03,23,09,53,7.70
2007,03,23,09,54,7.70
2007,03,23,09,55,7.70
2007,03,23,09,56,7.70
2007,03,23,09,57,7.70
2007,03,23,09,58,7.70
2007,03,23,09,59,7.70
2007,03,23,10,00,7.70
2007,03,23,10,01,7.70
2007,03,23,10,02,7.70
2007,03,23,10,03,7.70
2007,03,23,10,04,7.70
2007,03,23,10,05,7.70
2007,03,23,10,06,7.70
2007,03,23,10,07,7.70
2007,03,23,10,08,7.70
2007,03,23,10,09,7.80
2007,03,23,10,10,7.80
2007,03,23,10,11,7.80
2007,03,23,10,12,7.80
2007,03,23,10,13,7.80
2007,03,23,10,14,7.90
2007,03,23,10,15,7.90
2007,03,23,10,16,7.90
2007,03,23,10,17,7.90
2007,03,23,10,18,7.90
2007,03,23,10,19,7.90
2007,03,23,10,20,7.90
2007,03,23,10,21,7.90
2007,03,23,10,22,7.90
2007,03,23,10,23,8.00
2007,03,23,10,24,8.00
2007,03,23,10,25,8.00
2007,03,23,10,26,8.10
2007,03,23,10,27,8.10
2007,03,23,10,28,8.10
2007,03,23,10,29,8.10
2007,03,23,10,30,8.10
2007,03,23,10,31,8.10
2007,03,23,10,32,8.10
2007,03,23,10,33,8.10
2007,03,23,10,34,8.10
2007,03,23,10,35,8.10
2007,03,23,10,36,8.10
2007,03,23,10,37,8.10
2007,03,23,10,38,8.10
2007,03,23,10,39,8.10
2007,03,23,10,40,8.10
2007,03,23,10,41,8.10
2007,03,23,10,42,8.10
2007,03,23,10,43,8.10
2007,03,23,10,44,8.10
2007,03,23,10,45,8.10
2007,03,23,10,46,8.10
2007,03,23,10,47,8.10
2007,03,23,10,48,8.10
2007,03,23,10,49,8.10
2007,03,23,10,50,8.00
2007,03,23,10,51,8.00
2007,03,23,10,52,8.00
2007,03,23,10,53,8.00
2007,03,23,10,54,8.00
2007,03,23,10,55,7.90
2007,03,23,10,56,7.90
2007,03,23,10,57,7.90
2007,03,23,10,58,7.90
2007,03,23,10,59,7.90
2007,03,23,11,00,7.90
2007,03,23,11,01,7.90
2007,03,23,11,02,7.90
2007,03,23,11,03,7.90
2007,03,23,11,04,7.90
2007,03,23,11,05,7.90
2007,03,23,11,06,7.90
2007,03,23,11,07,7.90
2007,03,23,11,08,8.00
2007,03,23,11,09,8.00
2007,03,23,11,10,8.00
2007,03,23,11,11,8.00
2007,03,23,11,12,8.10
2007,03,23,11,13,8.10
2007,03,23,11,14,8.10
2007,03,23,11,15,8.10
2007,03,23,11,16,8.10
2007,03,23,11,17,8.10
2007,03,23,11,18,8.10
2007,03,23,11,19,8.10
2007,03,23,11,20,8.20
2007,03,23,11,21,8.20
2007,03,23,11,22,8.20
2007,03,23,11,23,8.20
2007,03,23,11,24,8.20
2007,03,23,11,25,8.20
2007,03,23,11,26,8.30
2007,03,23,11,27,8.30
2007,03,23,11,28,8.30
2007,03,23,11,29,8.30
2007,03,23,11,30,8.40
2007,03,23,11,31,8.40
2007,03,23,11,32,8.40
2007,03,23,11,33,8.40
2007,03,23,11,34,8.40
2007,03,23,11,35,8.40
2007,03,23,11,36,8.50
2007,03,23,11,37,8.50
2007,03,23,11,38,8.50
2007,03,23,11,39,8.60
2007,03,23,11,40,8.50
2007,03,23,11,41,8.50
2007,03,23,11,42,8.50
2007,03,23,11,43,8.60
2007,03,23,11,44,8.60
2007,03,23,11,45,8.60
2007,03,23,11,46,8.60
2007,03,23,11,47,8.60
2007,03,23,11,48,8.60
2007,03,23,11,49,8.60
2007,03,23,11,50,8.60
2007,03,23,11,51,8.60
2007,03,23,11,52,8.60
2007,03,23,11,53,8.60
2007,03,23,11,54,8.60
2007,03,23,11,55,8.60
2007,03,23,11,56,8.60
2007,03,23,11,57,8.60
2007,03,23,11,58,8.60
2007,03,23,11,59,8.60
2007,03,23,12,00,8.60
2007,03,23,12,01,8.60
2007,03,23,12,02,8.60
2007,03,23,12,03,8.60
2007,03,23,12,04,8.60
2007,03,23,12,05,8.60
2007,03,23,12,06,8.60
2007,03,23,12,07,8.60
2007,03,23,12,08,8.70
2007,03,23,12,09,8.70
2007,03,23,12,10,8.70
2007,03,23,12,11,8.70
2007,03,23,12,12,8.70
2007,03,23,12,13,8.70
2007,03,23,12,14,8.70
2007,03,23,12,15,8.70
2007,03,23,12,16,8.80
2007,03,23,12,17,8.80
2007,03,23,12,18,8.80
2007,03,23,12,19,8.80
2007,03,23,12,20,8.80
2007,03,23,12,21,8.80
2007,03,23,12,22,8.80
2007,03,23,12,23,8.80
2007,03,23,12,24,8.80
2007,03,23,12,25,8.80
2007,03,23,12,26,8.80
2007,03,23,12,27,8.80
2007,03,23,12,28,8.80
2007,03,23,12,29,8.80
2007,03,23,12,30,8.80
2007,03,23,12,31,8.80
2007,03,23,12,32,8.80
2007,03,23,12,33,8.80
2007,03,23,12,34,8.80
2007,03,23,12,35,8.70
2007,03,23,12,36,8.70
2007,03,23,12,37,8.70
2007,03,23,12,38,8.70
2007,03,23,12,39,8.70
2007,03,23,12,40,8.80
2007,03,23,12,41,8.80
2007,03,23,12,42,8.80
2007,03,23,12,43,8.80
2007,03,23,12,44,8.80
2007,03,23,12,45,8.80
2007,03,23,12,46,8.80
2007,03,23,12,47,8.80
2007,03,23,12,48,8.80
2007,03,23,12,49,8.80
2007,03,23,12,50,8.80
2007,03,23,12,51,8.80
2007,03,23,12,52,8.90
2007,03,23,12,53,8.90
2007,03,23,12,54,8.90
2007,03,23,12,55,8.90
2007,03,23,12,56,9.00
2007,03,23,12,57,9.00
2007,03,23,12,58,9.00
2007,03,23,12,59,9.10
2007,03,23,13,00,9.10
2007,03,23,13,01,9.10
2007,03,23,13,02,9.10
2007,03,23,13,03,9.20
2007,03,23,13,04,9.20
2007,03,23,13,05,9.30
2007,03,23,13,06,9.30
2007,03,23,13,07,9.40
2007,03,23,13,08,9.50
2007,03,23,13,09,9.60
2007,03,23,13,10,9.60
2007,03,23,13,11,9.70
2007,03,23,13,12,9.70
2007,03,23,13,13,9.80
2007,03,23,13,14,9.90
2007,03,23,13,15,9.90
2007,03,23,13,16,10.00
2007,03,23,13,17,10.10
2007,03,23,13,18,10.10
2007,03,23,13,19,10.10
2007,03,23,13,20,10.00
2007,03,23,13,21,10.00
2007,03,23,13,22,10.00
2007,03,23,13,23,9.90
2007,03,23,13,24,10.00
2007,03,23,13,25,10.00
2007,03,23,13,26,10.00
2007,03,23,13,27,10.10
2007,03,23,13,28,10.10
2007,03,23,13,29,10.10
2007,03,23,13,30,10.10
2007,03,23,13,31,10.10
2007,03,23,13,32,10.20
2007,03,23,13,33,10.20
2007,03,23,13,34,10.30
2007,03,23,13,35,10.30
2007,03,23,13,36,10.30
2007,03,23,13,37,10.40
2007,03,23,13,38,10.40
2007,03,23,13,39,10.40
2007,03,23,13,40,10.40
2007,03,23,13,41,10.40
2007,03,23,13,42,10.40
2007,03,23,13,43,10.40
2007,03,23,13,44,10.50
2007,03,23,13,45,10.50
2007,03,23,13,46,10.50
2007,03,23,13,47,10.60
2007,03,23,13,48,10.60
2007,03,23,13,49,10.60
2007,03,23,13,50,10.70
2007,03,23,13,51,10.70
2007,03,23,13,52,10.70
2007,03,23,13,53,10.80
2007,03,23,13,54,10.80
2007,03,23,13,55,10.80
2007,03,23,13,56,10.90
2007,03,23,13,57,10.90
2007,03,23,13,58,11.00
2007,03,23,13,59,11.00
2007,03,23,14,00,11.10
2007,03,23,14,01,11.10
2007,03,23,14,02,11.10
2007,03,23,14,03,11.10
2007,03,23,14,04,11.10
2007,03,23,14,05,11.10
2007,03,23,14,06,11.20
2007,03,23,14,07,11.20
2007,03,23,14,08,11.20
2007,03,23,14,09,11.20
2007,03,23,14,10,11.30
2007,03,23,14,11,11.30
2007,03,23,14,12,11.30
2007,03,23,14,13,11.30
2007,03,23,14,14,11.30
2007,03,23,14,15,11.30
2007,03,23,14,16,11.30
2007,03,23,14,17,11.30
2007,03,23,14,18,11.30
2007,03,23,14,19,11.30
2007,03,23,14,20,11.30
2007,03,23,14,21,11.30
2007,03,23,14,22,11.30
2007,03,23,14,23,11.20
2007,03,23,14,24,11.20
2007,03,23,14,25,11.10
2007,03,23,14,26,11.10
2007,03,23,14,27,11.00
2007,03,23,14,28,11.00
2007,03,23,14,29,11.00
2007,03,23,14,30,11.10
2007,03,23,14,31,11.10
2007,03,23,14,32,11.10
2007,03,23,14,33,11.10
2007,03,23,14,34,11.10
2007,03,23,14,35,11.00
2007,03,23,14,36,11.00
2007,03,23,14,37,10.90
2007,03,23,14,38,10.90
2007,03,23,14,39,10.90
2007,03,23,14,40,11.00
2007,03,23,14,41,11.00
2007,03,23,14,42,11.00
2007,03,23,14,43,11.00
2007,03,23,14,44,11.00
2007,03,23,14,45,11.10
2007,03,23,14,46,11.10
2007,03,23,14,47,11.10
2007,03,23,14,48,11.20
2007,03,23,14,49,11.20
2007,03,23,14,50,11.30
2007,03,23,14,51,11.30
2007,03,23,14,52,11.30
2007,03,23,14,53,11.30
2007,03,23,14,54,11.30
2007,03,23,14,55,11.20
2007,03,23,14,56,11.20
2007,03,23,14,57,11.20
2007,03,23,14,58,11.20
2007,03,23,14,59,11.20
2007,03,23,15,00,11.10
2007,03,23,15,01,11.00
2007,03,23,15,02,11.00
2007,03,23,15,03,10.90
2007,03,23,15,04,10.90
2007,03,23,15,05,10.80
2007,03,23,15,06,10.70
2007,03,23,15,07,10.70
2007,03,23,15,08,10.70
2007,03,23,15,09,10.70
2007,03,23,15,10,10.70
2007,03,23,15,11,10.60
2007,03,23,15,12,10.60
2007,03,23,15,13,10.70
2007,03,23,15,14,10.70
2007,03,23,15,15,10.70
2007,03,23,15,16,10.70
2007,03,23,15,17,10.70
2007,03,23,15,18,10.70
2007,03,23,15,19,10.70
2007,03,23,15,20,10.70
2007,03,23,15,21,10.70
2007,03,23,15,22,10.60
2007,03,23,15,23,10.60
2007,03,23,15,24,10.60
2007,03,23,15,25,10.60
2007,03,23,15,26,10.50
2007,03,23,15,27,10.50
2007,03,23,15,28,10.40
2007,03,23,15,29,10.40
2007,03,23,15,30,10.40
2007,03,23,15,31,10.40
2007,03,23,15,32,10.40
2007,03,23,15,33,10.40
2007,03,23,15,34,10.40
2007,03,23,15,35,10.40
2007,03,23,15,36,10.40
2007,03,23,15,37,10.40
2007,03,23,15,38,10.40
2007,03,23,15,39,10.40
2007,03,23,15,40,10.30
2007,03,23,15,41,10.40
2007,03,23,15,42,10.30
2007,03,23,15,43,10.40
2007,03,23,15,44,10.40
2007,03,23,15,45,10.40
2007,03,23,15,46,10.30
2007,03,23,15,47,10.30
2007,03,23,15,48,10.30
2007,03,23,15,49,10.20
2007,03,23,15,50,10.20
2007,03,23,15,51,10.20
2007,03,23,15,52,10.20
2007,03,23,15,53,10.20
2007,03,23,15,54,10.20
2007,03,23,15,55,10.20
2007,03,23,15,56,10.20
2007,03,23,15,57,10.20
2007,03,23,15,58,10.20
2007,03,23,15,59,10.20
2007,03,23,16,00,10.20
2007,03,23,16,01,10.30
2007,03,23,16,02,10.30
2007,03,23,16,03,10.30
2007,03,23,16,04,10.30
2007,03,23,16,05,10.40
2007,03,23,16,06,10.40
2007,03,23,16,07,10.40
2007,03,23,16,08,10.40
2007,03,23,16,09,10.50
2007,03,23,16,10,10.60
2007,03,23,16,11,10.60
2007,03,23,16,12,10.70
2007,03,23,16,13,10.80
2007,03,23,16,14,10.90
2007,03,23,16,15,11.00
2007,03,23,16,16,11.20
2007,03,23,16,17,11.30
2007,03,23,16,18,11.40
2007,03,23,16,19,11.50
2007,03,23,16,20,11.70
2007,03,23,16,21,11.80
2007,03,23,16,22,11.80
2007,03,23,16,23,11.90
2007,03,23,16,24,12.10
2007,03,23,16,25,12.20
2007,03,23,16,26,12.20
2007,03,23,16,27,12.30
2007,03,23,16,28,12.30
2007,03,23,16,29,12.30
2007,03,23,16,30,12.40
2007,03,23,16,31,12.40
2007,03,23,16,32,12.40
2007,03,23,16,33,12.30
2007,03,23,16,34,12.30
2007,03,23,16,35,12.30
2007,03,23,16,36,12.30
2007,03,23,16,37,12.30
2007,03,23,16,38,12.30
2007,03,23,16,39,12.30
2007,03,23,16,40,12.30
2007,03,23,16,41,12.30
2007,03,23,16,42,12.30
2007,03,23,16,43,12.30
2007,03,23,16,44,12.40
2007,03,23,16,45,12.30
2007,03,23,16,46,12.40
2007,03,23,16,47,12.40
2007,03,23,16,48,12.40
2007,03,23,16,49,12.40
2007,03,23,16,50,12.40
2007,03,23,16,51,12.40
2007,03,23,16,52,12.40
2007,03,23,16,53,12.50
2007,03,23,16,54,12.60
2007,03,23,16,55,12.60
2007,03,23,16,56,12.70
2007,03,23,16,57,12.80
2007,03,23,16,58,12.90
2007,03,23,16,59,12.90
2007,03,23,17,00,13.00
2007,03,23,17,01,13.00
2007,03,23,17,02,13.10
2007,03,23,17,03,13.10
2007,03,23,17,04,13.10
2007,03,23,17,05,13.10
2007,03,23,17,06,13.00
2007,03,23,17,07,13.00
2007,03,23,17,08,12.90
2007,03,23,17,09,12.90
2007,03,23,17,10,12.90
2007,03,23,17,11,12.80
2007,03,23,17,12,12.70
2007,03,23,17,13,12.50
2007,03,23,17,14,12.40
2007,03,23,17,15,12.30
2007,03,23,17,16,12.30
2007,03,23,17,17,12.20
2007,03,23,17,18,12.20
2007,03,23,17,19,12.20
2007,03,23,17,20,12.10
2007,03,23,17,21,12.10
2007,03,23,17,22,12.10
2007,03,23,17,23,12.10
2007,03,23,17,24,12.10
2007,03,23,17,25,12.10
2007,03,23,17,26,12.10
2007,03,23,17,27,12.10
2007,03,23,17,28,12.10
2007,03,23,17,29,12.10
2007,03,23,17,30,12.10
2007,03,23,17,31,12.10
2007,03,23,17,32,12.10
2007,03,23,17,33,12.10
2007,03,23,17,34,12.20
2007,03,23,17,35,12.20
2007,03,23,17,36,12.20
2007,03,23,17,37,12.20
2007,03,23,17,38,12.20
2007,03,23,17,39,12.30
2007,03,23,17,40,12.40
2007,03,23,17,41,12.40
2007,03,23,17,42,12.50
2007,03,23,17,43,12.60
2007,03,23,17,44,12.60
2007,03,23,17,45,12.70
2007,03,23,17,46,12.70
2007,03,23,17,47,12.70
2007,03,23,17,48,12.70
2007,03,23,17,49,12.70
2007,03,23,17,50,12.70
2007,03,23,17,51,12.70
2007,03,23,17,52,12.60
2007,03,23,17,53,12.60
2007,03,23,17,54,12.60